• In Deutschland
  • Länderverzeichnis
  • Für 7 Tage
  • Wassertemperatur
  • Satellitenkarten
  • Wetterkarte
  • Widgets
  • user-avatar
    Anmelden

    Stündliche Wetter Lingen

    Heute, 20 Juli, Freitag

    Zeit Temperatur Niederschläge Wind Luftdruck Luftfeuchtigkeit
    00:00 +16°C° 0 mm 3 m/S 761 mmHg 81%
    01:00 +16°C° 0 mm 3 m/S 760 mmHg 81%
    02:00 +14°C° 0 mm 3 m/S 760 mmHg 81%
    03:00 +14°C° 0 mm 3 m/S 760 mmHg 82%
    04:00 +16°C° 0 mm 3 m/S 759 mmHg 78%
    05:00 +17°C° 0 mm 3 m/S 759 mmHg 75%
    06:00 +18°C° 0 mm 3 m/S 759 mmHg 71%
    07:00 +20°C° 0 mm 2 m/S 759 mmHg 65%
    08:00 +23°C° 0 mm 2 m/S 759 mmHg 60%
    09:00 +25°C° 0 mm 2 m/S 759 mmHg 54%
    10:00 +26°C° 0 mm 2 m/S 759 mmHg 50%
    11:00 +27°C° 0 mm 2 m/S 758 mmHg 46%
    12:00 +29°C° 0 mm 2 m/S 758 mmHg 42%
    13:00 +29°C° 0 mm 2 m/S 758 mmHg 41%
    14:00 +29°C° 0 mm 2 m/S 757 mmHg 41%
    15:00 +29°C° 0 mm 2 m/S 757 mmHg 41%
    16:00 +28°C° 0 mm 2 m/S 757 mmHg 45%
    17:00 +27°C° 0 mm 2 m/S 757 mmHg 49%
    18:00 +26°C° 0 mm 2 m/S 757 mmHg 53%
    19:00 +24°C° 0 mm 2 m/S 757 mmHg 59%
    20:00 +21°C° 0 mm 2 m/S 757 mmHg 64%
    21:00 +20°C° 0 mm 2 m/S 757 mmHg 69%
    22:00 +19°C° 0,1 mm 2 m/S 757 mmHg 73%
    23:00 +18°C° 0,1 mm 2 m/S 757 mmHg 76%

    Morgen, 21 Juli, Samstag

    Zeit Temperatur Niederschläge Wind Luftdruck Luftfeuchtigkeit
    00:00 +17°C° 0,1 mm 2 m/S 757 mmHg 79%
    01:00 +17°C° 0 mm 2 m/S 756 mmHg 80%
    02:00 +18°C° 0 mm 1 m/S 756 mmHg 81%
    03:00 +18°C° 0 mm 1 m/S 756 mmHg 82%
    04:00 +19°C° 0 mm 1 m/S 756 mmHg 79%
    05:00 +20°C° 0 mm 1 m/S 756 mmHg 76%
    06:00 +20°C° 0 mm 1 m/S 756 mmHg 73%
    07:00 +22°C° 0 mm 1 m/S 756 mmHg 67%
    08:00 +24°C° 0 mm 2 m/S 756 mmHg 61%
    09:00 +26°C° 0 mm 2 m/S 756 mmHg 54%
    10:00 +27°C° 0 mm 2 m/S 756 mmHg 51%
    11:00 +28°C° 0 mm 2 m/S 756 mmHg 48%
    12:00 +29°C° 0 mm 2 m/S 756 mmHg 45%
    13:00 +29°C° 0 mm 3 m/S 756 mmHg 47%
    14:00 +28°C° 0 mm 3 m/S 756 mmHg 49%
    15:00 +27°C° 0 mm 4 m/S 756 mmHg 51%
    16:00 +26°C° 0,1 mm 4 m/S 756 mmHg 56%
    17:00 +25°C° 0,1 mm 4 m/S 756 mmHg 60%
    18:00 +23°C° 0,1 mm 4 m/S 757 mmHg 65%
    19:00 +21°C° 0,3 mm 4 m/S 757 mmHg 72%
    20:00 +19°C° 0,3 mm 3 m/S 757 mmHg 79%
    21:00 +17°C° 0,3 mm 3 m/S 757 mmHg 86%
    22:00 +16°C° 0 mm 3 m/S 757 mmHg 87%
    23:00 +15°C° 0 mm 2 m/S 758 mmHg 88%

    übermorgen, 22 Juli, Sonntag

    Zeit Temperatur Niederschläge Wind Luftdruck Luftfeuchtigkeit
    00:00 +15°C° 0 mm 2 m/S 758 mmHg 90%
    01:00 +14°C° 0 mm 2 m/S 758 mmHg 90%
    02:00 +14°C° 0 mm 1 m/S 758 mmHg 89%
    03:00 +14°C° 0 mm 1 m/S 758 mmHg 89%
    04:00 +15°C° 0 mm 1 m/S 758 mmHg 85%
    05:00 +16°C° 0 mm 1 m/S 758 mmHg 80%
    06:00 +18°C° 0 mm 1 m/S 758 mmHg 76%
    07:00 +19°C° 0 mm 2 m/S 758 mmHg 69%
    08:00 +21°C° 0 mm 2 m/S 758 mmHg 62%
    09:00 +24°C° 0 mm 2 m/S 759 mmHg 55%
    10:00 +24°C° 0 mm 2 m/S 758 mmHg 54%
    11:00 +25°C° 0 mm 2 m/S 758 mmHg 52%
    12:00 +26°C° 0 mm 3 m/S 758 mmHg 50%
    13:00 +26°C° 0 mm 3 m/S 758 mmHg 52%
    14:00 +26°C° 0 mm 3 m/S 758 mmHg 53%
    15:00 +26°C° 0 mm 3 m/S 758 mmHg 54%
    16:00 +25°C° 0,1 mm 3 m/S 759 mmHg 59%
    17:00 +24°C° 0,1 mm 3 m/S 759 mmHg 63%
    18:00 +24°C° 0,1 mm 3 m/S 759 mmHg 68%
    19:00 +20°C° 0 mm 3 m/S 759 mmHg 75%
    20:00 +18°C° 0 mm 3 m/S 760 mmHg 83%
    21:00 +16°C° 0 mm 2 m/S 760 mmHg 91%
    22:00 +16°C° 0 mm 2 m/S 760 mmHg 92%
    23:00 +15°C° 0 mm 2 m/S 760 mmHg 93%

    23 Juli, Montag

    Zeit Temperatur Niederschläge Wind Luftdruck Luftfeuchtigkeit
    00:00 +14°C° 0 mm 1 m/S 760 mmHg 93%
    01:00 +14°C° 0 mm 1 m/S 760 mmHg 93%
    02:00 +14°C° 0 mm 1 m/S 760 mmHg 93%
    03:00 +13°C° 0 mm 1 m/S 760 mmHg 93%
    04:00 +14°C° 0 mm 1 m/S 760 mmHg 89%
    05:00 +16°C° 0 mm 1 m/S 760 mmHg 85%
    06:00 +18°C° 0 mm 1 m/S 761 mmHg 81%
    07:00 +20°C° 0 mm 1 m/S 761 mmHg 73%
    08:00 +22°C° 0 mm 1 m/S 761 mmHg 65%
    09:00 +24°C° 0 mm 1 m/S 761 mmHg 57%
    10:00 +25°C° 0 mm 1 m/S 760 mmHg 53%
    11:00 +26°C° 0 mm 2 m/S 760 mmHg 49%
    12:00 +27°C° 0 mm 2 m/S 760 mmHg 45%
    13:00 +28°C° 0 mm 2 m/S 760 mmHg 44%
    14:00 +28°C° 0 mm 2 m/S 760 mmHg 43%
    15:00 +29°C° 0 mm 1 m/S 759 mmHg 42%
    16:00 +28°C° 0 mm 1 m/S 759 mmHg 46%
    17:00 +27°C° 0 mm 1 m/S 759 mmHg 50%
    18:00 +27°C° 0 mm 1 m/S 759 mmHg 54%
    19:00 +25°C° 0 mm 2 m/S 759 mmHg 61%
    20:00 +23°C° 0 mm 2 m/S 759 mmHg 68%
    21:00 +20°C° 0 mm 2 m/S 760 mmHg 75%
    22:00 +19°C° 0 mm 2 m/S 759 mmHg 77%
    23:00 +18°C° 0 mm 2 m/S 759 mmHg 80%

    24 Juli, Dienstag

    Zeit Temperatur Niederschläge Wind Luftdruck Luftfeuchtigkeit
    00:00 +18°C° 0 mm 2 m/S 759 mmHg 82%
    01:00 +18°C° 0 mm 2 m/S 759 mmHg 82%
    02:00 +17°C° 0 mm 2 m/S 759 mmHg 82%
    03:00 +17°C° 0 mm 2 m/S 759 mmHg 82%
    04:00 +18°C° 0 mm 2 m/S 759 mmHg 78%
    05:00 +20°C° 0 mm 2 m/S 759 mmHg 73%
    06:00 +21°C° 0 mm 2 m/S 759 mmHg 69%
    07:00 +24°C° 0 mm 2 m/S 759 mmHg 62%
    08:00 +26°C° 0 mm 2 m/S 758 mmHg 55%
    09:00 +28°C° 0 mm 2 m/S 758 mmHg 48%
    10:00 +29°C° 0 mm 2 m/S 758 mmHg 44%
    11:00 +30°C° 0 mm 2 m/S 758 mmHg 41%
    12:00 +31°C° 0 mm 2 m/S 758 mmHg 38%
    13:00 +31°C° 0 mm 1 m/S 758 mmHg 39%
    14:00 +31°C° 0 mm 1 m/S 758 mmHg 40%
    15:00 +31°C° 0 mm 1 m/S 757 mmHg 41%
    16:00 +30°C° 0 mm 1 m/S 758 mmHg 45%
    17:00 +29°C° 0 mm 2 m/S 758 mmHg 49%
    18:00 +28°C° 0 mm 2 m/S 758 mmHg 53%
    19:00 +26°C° 0 mm 2 m/S 758 mmHg 59%
    20:00 +25°C° 0 mm 3 m/S 758 mmHg 65%
    21:00 +22°C° 0 mm 3 m/S 758 mmHg 70%
    22:00 +21°C° 0 mm 2 m/S 759 mmHg 72%
    23:00 +21°C° 0 mm 2 m/S 759 mmHg 73%

    25 Juli, Mittwoch

    Zeit Temperatur Niederschläge Wind Luftdruck Luftfeuchtigkeit
    00:00 +20°C° 0 mm 2 m/S 759 mmHg 74%
    01:00 +20°C° 0 mm 2 m/S 759 mmHg 73%
    02:00 +20°C° 0 mm 2 m/S 759 mmHg 71%
    03:00 +21°C° 0 mm 2 m/S 759 mmHg 70%
    04:00 +21°C° 0 mm 2 m/S 759 mmHg 69%
    05:00 +23°C° 0 mm 1 m/S 759 mmHg 67%
    06:00 +24°C° 0 mm 1 m/S 759 mmHg 66%
    07:00 +25°C° 0 mm 1 m/S 760 mmHg 61%
    08:00 +27°C° 0 mm 1 m/S 760 mmHg 56%
    09:00 +29°C° 0 mm 1 m/S 760 mmHg 51%
    10:00 +30°C° 0 mm 1 m/S 760 mmHg 48%
    11:00 +31°C° 0 mm 1 m/S 760 mmHg 44%
    12:00 +32°C° 0 mm 1 m/S 760 mmHg 40%
    13:00 +32°C° 0 mm 1 m/S 760 mmHg 41%
    14:00 +32°C° 0 mm 1 m/S 759 mmHg 41%
    15:00 +31°C° 0 mm 1 m/S 759 mmHg 41%
    16:00 +31°C° 0 mm 1 m/S 759 mmHg 44%
    17:00 +30°C° 0 mm 1 m/S 759 mmHg 47%
    18:00 +29°C° 0 mm 1 m/S 759 mmHg 50%
    19:00 +28°C° 0 mm 1 m/S 760 mmHg 54%
    20:00 +26°C° 0 mm 1 m/S 760 mmHg 58%
    21:00 +25°C° 0 mm 2 m/S 760 mmHg 61%
    22:00 +24°C° 0 mm 2 m/S 760 mmHg 63%
    23:00 +24°C° 0 mm 1 m/S 760 mmHg 66%
    Mehr zeigen